GFSMW_925_spd_096.txt.gz
Wind_Speed
19 20 23 24 27 26 25 23 19 17 18 20 16 12 13 13 9 9 7 5 3 2 1 1 1 3 4 4 5 7 7 8 9 7 8 5 6 5 5 8 10 9 9
10 17 23 26 29 29 28 25 21 19 20 19 17 11 14 13 10 10 7 5 6 4 2 2 2 1 4 4 5 9 7 7 8 5 3 4 4 6 5 6 7 9 10
16 15 21 26 28 31 30 29 26 23 21 19 16 12 11 9 11 11 9 7 6 6 5 4 3 1 2 2 4 8 8 9 6 9 4 2 1 6 4 5 5 5 7
17 17 22 24 29 33 32 31 30 26 21 20 19 15 12 10 11 9 8 6 4 7 6 5 4 2 2 0 2 5 7 8 10 4 9 7 5 1 3 5 5 6 6
15 17 25 31 27 31 35 32 31 27 24 21 19 16 11 8 6 7 6 7 6 4 5 3 3 4 4 4 1 2 4 6 8 10 7 3 5 9 3 2 8 7 6
16 20 27 20 21 24 30 30 31 30 27 23 19 16 12 8 8 11 9 7 6 7 7 6 5 6 4 4 5 3 1 3 4 5 7 9 5 6 4 1 3 6 8
14 13 15 20 21 24 27 31 32 32 29 25 21 18 11 8 8 9 12 11 11 10 8 7 7 5 4 5 6 5 3 2 3 3 4 4 4 5 6 4 2 2 4
13 14 17 18 19 16 22 29 34 34 31 27 22 18 15 10 8 9 10 13 15 11 9 8 8 7 7 5 6 6 5 4 5 4 3 2 2 2 3 4 5 2 3
12 16 21 24 14 16 23 29 33 34 31 27 22 18 17 15 12 9 9 9 12 13 11 9 9 10 9 8 7 7 7 5 4 3 3 3 3 3 2 3 3 1 1
10 10 13 23 25 26 28 28 30 33 33 27 22 19 17 15 12 11 10 10 9 11 13 11 12 12 10 9 8 9 7 7 6 6 6 4 4 3 5 4 4 3 2
13 12 14 17 21 11 15 23 25 23 27 27 23 20 19 16 14 14 12 10 8 8 9 10 8 10 13 12 11 10 9 9 8 6 5 8 6 7 6 7 7 6 6
7 10 17 19 20 19 6 10 17 24 23 22 22 20 17 18 16 15 14 14 13 11 11 10 10 9 8 9 10 11 11 10 9 9 9 7 6 6 6 8 9 9 8
7 8 13 18 19 21 12 6 7 6 2 10 16 13 12 13 15 16 17 17 16 14 13 13 13 12 9 11 12 13 12 12 13 11 10 10 8 8 7 8 9 9 9
6 8 8 9 10 15 21 20 16 10 7 8 8 12 7 5 6 8 10 12 13 12 13 15 14 14 13 12 12 16 15 14 14 14 13 12 11 12 12 11 11 12 12
5 6 7 11 14 17 19 21 19 19 21 16 10 15 17 15 8 3 1 2 4 6 9 13 15 15 15 16 15 14 15 16 15 16 15 14 14 14 13 14 15 16 17
7 7 7 12 13 16 15 17 18 18 17 14 11 11 10 11 13 15 14 10 6 6 6 5 8 13 15 17 17 16 16 15 16 17 17 15 13 14 15 16 17 16 18
8 8 8 12 14 15 17 17 17 14 12 13 12 9 7 7 7 8 8 10 11 11 13 13 12 10 8 14 16 17 16 17 17 16 16 16 16 16 17 18 17 16 17
10 9 14 18 22 24 26 26 25 23 21 18 16 13 10 7 4 3 3 6 6 8 11 12 11 11 11 8 5 11 11 13 12 11 12 13 15 15 15 17 19 20 20
15 18 22 24 27 27 27 29 27 24 22 19 19 17 14 12 8 5 1 1 4 3 5 10 10 15 17 17 13 10 7 5 4 4 5 8 8 10 11 11 13 17 18
18 22 24 26 30 24 27 28 25 23 20 16 15 13 13 12 12 9 9 9 8 6 9 16 16 13 15 16 18 16 13 15 14 11 13 14 13 15 15 15 14 16 19
20 22 25 24 21 21 22 23 20 19 15 13 12 12 12 14 14 14 16 15 17 23 19 17 15 15 14 10 12 13 17 15 13 14 13 14 15 16 15 15 15 17 17
19 24 26 22 17 15 17 18 17 12 10 10 10 10 11 12 12 13 16 15 16 18 16 14 14 14 12 12 14 15 14 12 13 14 16 16 16 16 16 16 15 16 18
18 22 25 20 16 13 10 13 12 9 9 10 12 12 12 11 11 11 12 13 13 14 13 12 11 9 13 14 13 12 11 11 13 15 14 14 16 17 18 18 18 18 19
18 21 21 19 16 12 12 13 11 10 10 12 14 13 12 11 12 12 11 12 12 11 11 11 11 10 13 16 17 17 16 15 14 15 16 17 18 18 19 21 21 20 19
19 19 18 16 13 11 10 11 12 11 15 14 13 13 13 12 13 13 13 13 14 12 11 12 10 11 14 17 15 17 18 17 17 17 16 18 19 20 20 20 20 20 22
20 18 18 19 17 13 11 11 10 10 13 14 13 13 14 14 13 13 15 15 13 11 13 12 12 10 10 9 11 11 9 11 13 13 16 16 17 15 18 18 21 19 21

GFSMW_925_spd_102.txt.gz
Wind_Speed
17 18 16 16 17 17 17 16 15 14 13 11 11 10 10 8 8 8 6 5 6 5 3 4 3 5 4 3 2 2 2 4 3 3 5 6 5 6 5 4 3 4 3
16 18 18 18 18 19 18 17 15 14 14 11 9 8 8 8 8 7 6 5 5 4 4 4 3 3 5 4 4 3 1 4 5 3 2 3 7 5 4 3 3 2 3
17 16 19 20 19 20 21 19 17 14 13 11 10 8 8 8 9 8 7 6 6 5 4 4 3 3 2 4 2 3 4 5 5 6 5 3 3 3 3 3 3 2 3
16 19 21 20 21 20 20 19 18 14 12 13 12 10 11 11 9 9 7 6 6 6 6 5 5 4 3 2 2 2 3 3 5 5 7 7 4 3 4 5 4 3 2
20 18 22 24 22 20 20 19 18 16 13 13 11 11 11 10 8 7 7 6 6 7 7 7 6 6 4 3 2 1 2 3 4 5 2 3 3 4 3 3 3 5 1
20 22 23 22 21 20 19 19 18 17 16 13 12 11 9 7 8 7 7 8 8 7 6 6 5 5 4 4 4 3 2 1 3 3 3 5 5 7 5 1 1 2 2
19 18 18 20 19 21 21 20 19 18 17 14 12 12 11 7 7 8 9 4 7 8 10 9 8 6 7 5 5 5 4 3 1 2 2 3 4 4 5 6 4 3 3
20 17 21 22 23 22 22 20 20 19 18 17 14 11 9 9 9 8 5 8 6 6 7 8 7 6 6 6 5 6 7 5 3 3 3 3 2 3 4 6 8 6 4
18 18 20 21 22 23 23 22 19 18 17 17 14 13 12 12 8 3 6 7 6 7 7 7 8 7 8 6 6 6 7 6 5 4 5 6 5 5 5 5 6 8 8
18 15 20 22 21 23 20 18 18 16 15 15 15 15 13 13 12 8 8 6 4 8 9 8 7 8 8 8 8 6 7 6 7 7 5 6 7 7 7 8 8 8 10
21 15 15 20 20 21 17 15 14 13 13 14 15 15 13 11 10 10 10 6 6 6 6 8 8 6 8 10 9 7 6 8 7 6 6 7 7 8 9 9 10 11 11
17 15 18 16 17 21 18 14 12 8 9 13 14 14 16 12 12 11 12 9 8 7 5 6 7 4 5 6 9 7 7 8 7 7 7 7 7 7 8 9 9 11 10
16 18 20 23 25 21 22 19 11 7 4 10 14 13 17 17 14 13 13 11 11 9 8 7 5 6 5 6 7 8 8 7 8 7 7 8 8 8 10 8 9 10 10
11 13 13 18 22 22 19 19 16 12 6 8 8 9 13 17 16 14 13 13 12 12 11 10 9 8 7 7 7 8 8 8 8 8 8 8 9 9 9 11 10 11 11
13 13 12 14 15 17 20 19 21 23 18 10 10 8 6 7 10 11 12 12 12 13 13 11 10 9 8 9 8 8 8 7 8 8 9 10 9 10 11 11 11 11 12
11 12 12 15 17 20 22 21 23 20 14 11 10 11 8 4 6 7 8 8 8 8 8 7 6 5 6 13 15 13 10 9 7 7 6 7 7 6 6 7 9 11 12
7 8 11 14 16 18 20 21 20 19 15 14 14 17 15 14 14 11 8 7 7 7 6 5 5 2 2 7 11 13 11 9 8 6 6 5 3 4 7 9 11 11 12
8 7 9 8 8 9 12 17 21 17 17 17 19 15 15 17 14 12 12 9 8 7 7 7 8 7 5 3 2 4 6 8 8 4 5 4 2 5 6 7 9 10 10
9 9 9 9 12 15 17 22 23 23 21 20 16 13 15 15 15 14 10 8 7 6 9 7 7 8 9 6 8 8 6 7 8 7 6 6 5 6 6 5 6 9 9
11 12 12 14 14 16 19 24 20 20 17 13 13 13 9 8 9 8 9 10 8 14 15 10 9 11 12 10 9 10 7 8 8 7 5 8 7 6 7 6 7 6 9
15 15 18 20 19 19 21 22 19 18 15 14 11 10 10 7 7 7 7 9 14 16 12 12 11 9 9 7 8 9 8 6 5 5 3 3 4 5 7 6 6 7 12
17 16 19 20 18 17 18 17 15 12 12 11 11 10 9 8 8 10 10 12 16 14 12 11 9 6 8 8 9 8 9 7 7 5 2 2 4 6 7 7 8 7 8
16 17 18 18 18 15 10 11 9 9 9 9 9 9 9 9 9 10 11 11 9 10 10 8 7 4 2 3 3 3 2 0 2 1 4 5 8 8 6 10 10 8 8
14 14 15 15 15 12 11 9 6 6 6 8 8 8 8 9 8 7 6 6 6 6 7 6 5 3 3 4 5 4 5 5 5 5 6 6 6 4 5 7 8 9 10
12 12 12 13 12 9 9 6 5 5 6 6 6 7 8 8 9 9 7 5 4 4 4 3 2 1 1 3 5 5 4 4 3 5 3 5 5 6 7 9 10 11 12
11 10 11 9 9 8 6 5 4 3 3 3 3 3 6 7 8 10 11 11 10 6 6 8 7 5 2 2 2 3 3 4 6 5 5 6 7 8 9 10 11 11 12

GFSMW_925_spd_105.txt.gz
Wind_Speed
21 20 19 20 19 19 17 16 16 16 14 13 12 10 10 9 9 12 8 6 6 5 3 6 4 3 6 8 1 4 3 2 1 6 7 6 7 6 6 5 5 4 3
17 20 13 22 22 20 19 18 17 16 13 13 6 6 15 10 11 10 8 6 6 4 4 1 3 2 4 2 2 6 6 5 2 7 2 5 6 6 8 4 4 1 3
19 18 19 20 22 21 20 20 16 16 14 9 7 6 4 6 7 8 9 8 6 5 1 3 3 2 0 4 1 3 6 4 4 5 9 3 1 8 7 6 4 4 4
20 22 26 22 22 23 20 20 18 16 14 9 11 8 10 11 12 12 8 7 7 6 5 5 3 4 5 3 2 2 7 8 5 3 6 6 5 4 4 7 5 6 7
19 13 22 23 24 25 21 20 19 17 15 14 9 10 14 9 12 8 8 4 8 7 7 6 5 4 4 3 2 1 7 7 9 4 3 3 2 3 11 0 10 5 4
13 26 22 22 20 26 21 21 19 18 15 12 11 9 10 7 0 8 7 12 9 9 6 7 5 5 6 2 4 3 3 7 8 8 6 6 10 13 8 3 3 4 3
14 18 7 28 22 15 24 22 20 19 18 15 12 9 4 3 2 4 10 3 10 8 9 8 6 6 7 3 5 5 2 2 3 8 10 1 7 8 9 11 6 4 3
18 17 31 21 21 29 20 21 21 20 19 17 14 11 9 9 9 9 7 11 11 6 12 8 6 5 5 7 6 8 7 8 4 4 8 10 4 3 4 9 12 9 9
21 12 22 30 23 28 24 21 21 20 19 18 15 13 11 11 7 5 3 13 5 6 8 7 7 7 7 7 6 9 6 5 5 7 6 7 12 6 7 6 7 8 8
23 20 9 16 25 22 23 23 23 20 18 17 16 14 13 10 9 7 10 6 2 1 11 7 7 7 7 7 7 10 10 7 8 8 7 5 11 11 8 8 10 10 11
20 6 6 15 24 22 25 28 27 22 20 17 16 14 13 11 9 8 8 5 3 4 1 4 6 6 8 8 8 10 3 6 7 8 5 6 7 8 12 14 11 9 11
19 14 14 13 20 21 19 19 9 24 22 21 16 15 12 10 12 10 8 7 4 4 5 5 6 7 7 8 9 10 8 8 8 8 7 7 8 4 7 9 8 8 12
20 20 24 14 8 19 16 21 14 13 11 12 14 13 16 17 13 12 11 11 9 8 8 8 7 8 8 7 7 9 8 8 8 7 8 7 7 7 8 8 11 12 10
16 18 15 22 14 24 22 18 21 20 14 6 7 11 13 16 16 13 12 11 11 11 10 10 9 9 10 9 9 9 9 9 9 9 9 8 9 8 8 9 8 10 11
13 14 13 19 25 24 25 21 18 17 24 17 11 12 11 13 13 10 11 12 13 13 13 12 11 9 10 10 11 11 11 10 11 10 8 12 10 8 8 9 9 9 11
10 10 11 16 20 23 22 19 18 17 18 20 15 15 14 9 11 11 11 12 12 13 13 13 12 11 9 8 13 14 10 9 9 10 9 8 4 6 6 10 12 12 10
11 14 12 14 15 18 19 21 20 19 18 17 15 13 12 11 8 6 8 8 7 8 8 7 5 3 4 12 14 16 15 11 9 9 7 9 3 0 6 10 12 11 12
7 9 10 11 9 9 16 19 21 21 18 16 15 13 12 11 10 14 12 9 10 5 6 7 6 4 3 1 4 7 6 9 4 5 3 1 2 6 5 5 7 7 8
9 9 8 8 8 7 5 12 15 14 14 14 14 12 10 11 13 11 9 9 9 6 7 9 6 4 3 1 2 5 5 5 5 5 6 5 3 5 6 6 6 8 6
10 11 12 12 11 10 11 14 14 14 15 16 14 12 9 11 11 12 10 6 6 9 14 9 4 4 4 4 3 3 3 5 5 6 7 5 5 6 7 7 8 8 11
14 15 18 20 16 15 17 21 21 18 16 13 13 13 11 9 8 7 5 10 11 16 14 8 6 5 5 4 5 4 5 6 2 4 5 5 5 7 8 8 9 10 13
18 18 21 21 20 21 25 21 21 16 16 15 13 12 10 7 7 8 7 8 12 10 10 9 7 6 5 5 6 8 7 5 4 4 2 2 4 6 7 10 12 8 11
19 19 19 20 19 19 18 21 15 14 14 12 10 10 9 8 7 8 9 9 9 9 9 9 8 7 4 2 2 3 1 1 3 2 5 6 6 6 7 7 9 11 9
17 17 17 17 16 16 15 16 13 11 11 8 7 7 7 7 6 7 8 8 7 7 7 6 5 5 3 2 4 4 4 3 2 2 4 3 4 4 5 5 8 10 10
11 11 12 14 15 13 11 11 13 10 8 6 5 4 6 5 5 9 7 6 3 4 7 3 0 2 6 3 1 1 1 1 1 3 2 5 7 7 8 9 11 10 10
10 10 10 10 10 11 10 9 10 9 9 6 6 5 7 7 6 5 4 3 3 2 1 4 4 3 3 3 2 4 4 5 4 3 4 5 5 5 6 7 7 8 11

GFSMW_925_spd_108.txt.gz
Wind_Speed
19 20 22 23 22 22 17 22 19 18 14 12 11 8 9 3 9 7 6 4 4 2 2 4 6 9 1 9 9 10 11 5 4 5 7 6 9 11 13 12 18 7 11
6 20 22 25 23 22 19 18 23 18 17 14 14 11 14 10 11 12 9 6 6 4 4 1 2 9 2 4 3 5 11 5 3 9 4 1 11 14 13 8 11 7 9
7 14 20 22 26 25 21 19 23 21 19 4 14 8 11 11 16 14 12 9 8 4 2 1 4 2 3 2 3 6 10 9 6 5 6 4 2 2 6 7 6 9 9
19 15 20 20 26 28 27 22 20 22 15 9 8 11 10 8 14 14 14 12 10 8 5 2 0 1 4 2 4 3 5 11 15 5 3 6 4 2 4 15 12 10 9
10 18 23 25 22 28 29 27 23 19 16 18 9 7 7 3 8 5 10 10 10 6 8 6 4 2 2 2 3 7 9 12 13 19 13 7 1 21 7 3 16 12 9
13 24 22 18 29 31 29 32 27 22 18 18 15 9 5 10 10 3 14 12 10 10 6 7 5 5 2 2 2 5 7 9 11 13 18 19 11 15 11 5 18 12 7
7 7 17 25 29 25 28 30 30 25 20 17 14 11 11 11 15 16 11 8 3 2 14 9 8 5 5 2 3 4 3 6 10 12 14 15 1 2 14 6 10 9 4
16 19 17 16 12 24 16 28 27 25 23 19 15 11 9 9 7 10 1 3 4 11 10 12 7 5 5 5 4 5 6 5 6 8 11 16 16 23 17 12 2 4 11
24 22 15 18 14 19 28 12 28 24 23 19 17 13 9 6 2 6 14 12 23 14 13 12 9 8 5 6 5 7 7 7 4 7 10 11 14 18 19 11 14 11 3
25 17 17 24 34 32 28 24 18 26 24 22 22 16 13 9 7 5 3 2 11 7 11 5 6 6 7 6 7 8 8 7 6 6 9 5 11 15 17 19 19 17 13
25 19 12 14 18 27 31 27 30 25 26 23 24 22 19 17 11 8 8 7 8 3 2 3 5 4 5 8 8 10 5 5 5 5 8 7 8 10 14 16 17 16 17
20 16 15 19 9 7 8 33 29 27 24 23 22 19 19 18 18 13 7 6 7 5 6 5 6 7 8 9 8 8 7 10 7 6 7 7 9 6 8 12 14 17 14
14 14 16 6 13 15 24 24 14 25 19 16 19 16 15 17 12 18 13 13 9 6 7 9 8 9 9 9 7 8 7 6 7 8 6 8 7 8 9 10 13 13 16
14 14 13 16 11 17 29 36 30 20 27 29 24 23 16 14 15 11 13 15 16 14 12 10 10 9 9 8 9 8 9 8 6 7 7 8 9 8 9 8 10 11 14
16 13 13 13 20 24 27 14 16 13 16 25 26 21 13 13 11 12 13 12 10 13 12 10 9 9 7 11 11 11 9 9 10 10 8 7 10 9 10 9 10 12 12
14 13 13 14 22 24 21 22 19 13 9 10 10 12 12 16 12 10 10 10 9 8 8 10 10 7 8 9 7 10 9 7 9 10 10 9 4 3 4 5 7 10 14
7 9 10 12 18 22 21 22 20 17 16 12 12 12 13 15 14 11 9 8 7 8 6 5 4 7 8 9 9 11 12 11 7 8 8 6 3 4 2 4 8 11 10
12 12 11 11 8 14 17 17 18 18 16 15 13 11 11 10 6 6 4 7 9 7 6 10 9 1 3 5 8 7 7 6 4 1 2 4 1 4 5 5 8 7 8
14 14 15 12 12 12 8 11 15 17 17 14 13 10 8 7 6 6 6 6 10 8 11 9 6 1 5 5 3 0 4 6 6 4 7 2 4 7 7 8 6 6 8
15 12 12 12 13 11 15 17 15 12 8 8 12 12 12 10 8 8 8 7 10 15 12 8 2 2 1 1 3 3 8 6 8 10 7 7 8 8 8 7 8 9 11
12 14 17 18 15 13 15 19 16 17 12 15 15 13 10 9 8 6 6 5 9 12 11 6 2 2 2 4 0 4 9 11 12 12 9 7 7 7 8 9 9 10 13
13 14 18 19 19 18 22 23 21 17 16 14 12 14 12 13 11 10 10 11 13 12 9 7 6 3 4 3 4 2 3 6 9 7 3 4 5 6 7 10 9 9 10
14 15 19 20 22 20 21 24 17 17 18 18 17 14 14 14 11 10 8 9 12 10 10 11 10 7 2 3 5 4 4 4 4 2 4 5 5 6 8 8 13 11 11
13 14 16 19 18 18 17 15 14 14 14 15 14 14 11 14 10 12 6 9 5 5 8 12 12 10 6 3 0 2 5 5 3 1 2 4 5 3 7 11 10 11 11
10 15 16 19 16 15 14 12 10 9 11 9 9 11 10 8 10 14 12 8 8 8 7 11 9 10 10 5 3 3 3 3 2 3 4 3 3 4 5 6 7 8 9
11 14 12 13 12 12 12 11 10 8 6 4 1 5 8 7 7 6 6 7 6 4 4 5 3 3 2 3 4 3 1 4 5 4 6 6 4 7 5 7 7 11 11

GFSMW_925_spd_111.txt.gz
Wind_Speed
16 24 29 32 29 23 27 20 22 19 16 11 8 14 11 3 16 11 8 8 4 2 2 7 8 4 5 9 9 12 15 9 8 7 6 8 10 12 14 8 10 9 9
13 16 31 29 29 28 26 23 23 18 15 12 10 8 12 15 15 10 8 7 5 3 1 3 4 4 4 6 8 11 15 8 9 5 4 3 4 9 13 15 13 15 8
10 15 27 29 31 29 27 28 25 19 17 6 11 7 8 11 12 11 9 9 7 4 1 1 2 1 5 3 7 9 12 16 17 5 2 2 1 3 2 6 13 28 32
6 11 25 27 31 31 31 30 23 21 18 10 11 11 11 7 9 8 11 11 8 7 3 3 1 2 4 2 5 8 11 14 18 12 11 17 19 3 4 19 23 28 32
6 11 14 27 30 34 32 30 27 23 17 15 12 14 11 9 7 6 10 9 8 7 8 6 5 2 3 1 4 6 7 11 13 18 20 25 26 18 8 3 19 24 17
7 4 5 24 30 31 31 33 29 24 21 15 15 10 8 9 5 6 5 7 10 10 8 8 6 5 5 3 2 3 4 6 9 12 14 12 8 8 11 4 15 16 13
10 8 5 12 26 29 29 32 31 26 23 17 15 12 10 6 11 10 7 10 9 6 9 8 9 6 6 4 2 5 3 5 9 11 12 12 16 13 13 17 25 10 11
10 10 13 14 23 31 33 32 34 28 23 18 15 13 12 15 8 16 12 10 14 7 6 9 9 10 6 7 3 5 5 6 6 6 11 11 10 7 9 1 12 3 11
13 11 15 15 21 26 33 33 35 32 28 23 19 17 14 12 17 16 10 16 12 6 8 9 10 8 6 5 4 3 3 4 7 3 9 9 8 11 11 12 9 1 4
15 13 14 22 28 28 24 33 34 34 32 27 24 20 17 15 13 15 14 10 10 13 11 12 13 12 10 7 7 5 3 6 4 5 4 7 9 10 9 10 14 12 6
17 14 11 26 26 21 19 27 32 28 27 27 25 22 20 16 14 11 9 8 14 10 15 12 9 11 8 9 8 6 7 4 5 3 1 3 5 8 7 10 11 16 11
16 13 17 23 26 19 17 26 30 27 29 27 29 26 22 20 20 19 15 14 18 11 14 17 13 11 9 8 8 6 5 7 8 7 3 4 3 5 6 8 10 9 9
17 14 16 23 22 22 18 15 16 19 29 31 31 29 30 26 25 23 21 19 18 14 12 10 10 11 10 9 9 6 6 7 5 9 7 6 4 5 5 5 7 9 9
18 16 13 17 20 23 22 19 15 9 14 33 30 31 28 27 25 25 22 22 23 16 12 12 11 11 9 9 9 7 5 7 7 4 3 6 7 5 4 5 4 6 8
15 16 16 14 20 25 28 20 17 29 22 28 28 29 29 16 11 14 17 18 21 19 13 11 10 8 9 10 8 11 8 8 8 7 6 6 7 3 3 5 6 8 8
9 9 15 23 24 27 32 34 33 31 20 20 24 19 21 23 17 16 9 14 11 13 12 11 8 7 5 6 4 5 10 8 8 7 5 5 2 3 2 0 5 8 9
13 8 9 16 23 28 35 26 30 33 28 19 21 18 15 15 15 16 17 15 17 12 12 10 9 9 7 9 8 6 9 7 5 6 5 4 3 4 2 4 5 7 7
15 11 13 17 13 20 25 26 29 34 29 21 17 17 17 15 11 10 10 13 15 18 19 14 7 4 2 6 6 6 5 7 5 4 4 4 1 2 2 3 4 6 7
12 15 18 16 14 10 17 24 26 29 25 22 20 15 12 10 9 8 7 7 11 15 14 11 10 5 1 2 2 3 7 8 7 6 6 4 5 7 5 3 4 4 6
17 18 16 16 16 15 12 17 16 17 14 16 15 12 11 12 10 10 10 12 15 17 15 13 8 5 2 2 4 4 9 13 13 11 10 8 9 9 8 8 9 9 12
16 15 18 19 16 13 18 20 18 16 14 16 17 18 16 14 13 12 12 13 16 15 12 9 6 4 5 6 7 11 12 12 13 12 11 8 7 8 9 10 9 8 9
17 17 16 18 18 18 20 22 21 12 13 18 18 16 16 15 13 13 12 12 13 13 11 10 10 7 7 8 8 9 12 13 16 11 8 6 6 6 6 7 7 8 10
16 17 15 17 22 21 23 25 20 20 19 22 19 15 15 15 13 12 11 11 10 10 10 12 10 10 8 7 9 9 9 8 7 7 6 5 4 6 5 5 5 4 7
16 15 17 16 17 20 19 19 18 18 18 19 19 19 18 16 14 14 12 13 11 7 5 8 8 10 8 6 5 5 5 4 4 5 7 6 6 6 8 6 6 8 9
14 14 13 15 13 13 15 13 13 12 15 13 14 13 13 14 16 16 13 11 13 9 8 7 16 15 9 3 3 2 1 3 1 7 8 5 4 6 6 9 10 10 13
16 15 14 14 13 12 12 11 10 10 10 10 8 8 8 9 9 9 9 6 8 8 10 9 7 7 5 1 3 3 2 1 4 7 8 8 10 8 9 11 14 13 14

GFSMW_925_spd_114.txt.gz
Wind_Speed
19 31 33 35 32 28 27 23 19 19 19 13 9 14 13 11 14 12 12 9 6 2 3 5 4 3 8 11 13 16 15 15 8 1 6 9 12 11 9 8 8 6 10
16 26 29 30 34 33 29 25 23 21 18 12 11 15 12 10 16 10 9 7 5 3 2 4 4 4 5 8 12 15 15 14 11 3 2 2 2 16 5 5 19 18 17
18 17 25 26 31 33 31 28 27 22 18 14 10 10 11 13 11 9 9 9 7 4 1 2 3 3 5 5 10 12 15 18 20 10 4 2 1 3 9 19 17 18 14
17 19 23 24 30 34 31 29 26 21 18 12 12 12 13 15 12 12 11 10 9 6 4 3 2 1 3 3 8 11 13 15 14 12 14 10 5 2 1 2 9 11 12
20 19 25 28 29 34 34 32 27 23 19 13 11 10 12 12 11 10 11 10 9 8 7 7 5 4 1 2 4 7 8 12 13 14 6 7 7 6 3 3 5 3 9
15 21 26 27 26 31 33 32 29 25 22 17 11 12 11 11 12 10 10 13 10 7 6 8 7 6 3 0 0 2 4 7 8 9 10 3 2 2 1 2 3 6 3
11 14 17 24 25 28 32 35 30 26 25 21 16 15 13 13 13 11 16 17 13 11 12 7 8 7 4 4 2 0 2 3 5 7 8 8 7 6 0 1 1 3 4
9 11 19 27 29 30 33 34 35 30 28 26 22 18 14 14 11 14 15 15 15 11 10 12 10 9 7 6 5 4 2 1 3 2 5 5 5 6 6 5 1 2 3
12 12 16 24 28 28 32 35 36 33 29 28 24 21 16 14 12 16 10 14 13 13 10 14 12 9 9 6 7 5 3 3 1 4 4 6 6 3 3 6 4 3 1
13 10 17 23 31 33 36 38 37 36 32 28 27 25 21 16 13 14 15 16 17 13 11 14 12 13 11 10 9 7 5 4 3 2 1 2 3 3 4 3 6 5 6
15 12 17 25 31 37 34 37 36 35 32 29 27 25 22 20 18 16 14 13 12 15 14 12 11 9 8 12 10 10 8 5 7 5 4 3 1 1 2 3 2 4 5
17 13 17 21 27 30 36 36 36 39 36 34 32 28 26 25 23 19 16 13 11 11 10 14 12 11 9 11 13 12 10 10 9 8 7 6 4 3 3 2 2 3 3
16 15 14 17 23 27 29 29 35 34 34 33 33 31 29 28 26 25 22 17 13 13 9 10 13 13 13 13 11 10 9 10 7 9 12 10 6 5 4 2 2 1 3
18 17 13 17 23 29 31 33 33 31 29 28 28 31 31 29 28 25 25 23 19 17 13 11 11 11 12 11 12 13 5 9 8 4 1 6 7 7 6 4 3 4 6
2 11 11 14 21 25 31 32 33 31 30 24 20 28 32 29 29 25 23 21 26 22 18 13 13 10 10 13 13 10 8 8 6 4 5 4 6 6 6 6 3 3 2
16 6 9 12 18 21 25 30 32 27 27 25 20 19 29 25 23 20 15 19 16 22 19 14 12 11 9 9 7 8 9 10 8 6 5 2 3 5 6 4 2 3 2
14 10 5 1 9 15 25 29 31 22 18 29 16 20 17 20 12 21 19 25 17 16 13 11 9 9 10 11 10 8 7 9 8 8 7 6 4 3 4 5 6 5 5
4 10 11 13 7 7 18 16 21 18 23 27 26 20 19 16 12 11 15 17 19 20 18 11 11 9 6 4 4 6 8 9 10 9 9 7 5 5 8 10 8 7 4
4 1 5 14 11 7 13 16 15 17 22 24 22 18 19 20 15 13 12 14 17 17 18 12 10 11 7 3 1 2 7 11 11 10 8 6 7 7 7 6 7 7 9
9 8 9 13 13 9 9 13 10 17 22 22 20 19 19 14 13 13 11 11 13 15 16 16 13 8 3 3 1 5 11 13 13 11 9 9 9 8 7 6 8 11 13
10 12 16 14 12 13 14 16 13 10 5 14 15 17 17 16 14 13 11 13 15 16 16 14 10 6 5 4 2 6 12 14 15 13 11 9 7 6 6 6 6 11 13
13 14 13 16 17 16 19 22 20 14 15 14 15 22 21 16 15 13 13 16 18 16 13 11 11 9 8 8 7 5 9 12 12 12 9 8 6 6 6 9 11 11 9
12 14 15 19 22 21 21 23 19 15 15 19 18 19 19 18 16 16 14 13 14 14 12 10 10 11 10 8 8 9 9 10 9 8 5 4 4 6 7 8 8 7 5
14 11 17 16 19 21 21 20 17 19 21 22 21 19 17 15 15 14 13 13 10 9 12 11 11 11 10 8 7 5 5 7 6 7 7 8 7 5 7 6 6 7 9
12 10 15 14 17 16 18 15 15 14 18 19 17 19 18 16 14 13 13 9 8 6 6 11 14 15 10 7 7 5 4 4 5 9 9 8 8 9 9 10 11 12 12
11 14 14 12 10 12 13 13 10 9 10 15 13 10 13 12 11 10 12 9 9 8 7 5 12 12 7 5 3 3 3 4 6 11 11 11 9 11 13 13 14 13 13

GFSMW_925_spd_117.txt.gz
Wind_Speed
17 25 28 32 32 31 28 26 24 21 19 17 16 13 14 10 11 8 7 7 7 3 2 6 6 6 7 9 11 9 8 10 5 0 2 2 3 5 5 4 4 5 4
12 18 24 27 31 34 30 30 26 23 20 16 16 15 14 13 13 9 9 8 6 4 2 4 5 5 6 7 9 11 11 11 7 3 4 2 4 8 7 7 6 5 3
16 16 23 26 28 31 33 31 26 26 23 15 15 16 14 11 15 10 10 8 7 5 3 2 3 4 4 6 8 10 11 6 11 8 3 2 2 1 2 6 7 3 2
17 17 23 23 27 33 32 29 29 27 23 19 16 17 16 17 15 12 9 7 6 6 4 3 1 3 3 5 5 6 9 7 6 8 6 3 3 2 2 7 4 4 4
17 19 26 29 32 30 34 30 28 26 22 20 17 16 16 16 14 13 10 8 8 8 7 6 5 2 2 4 4 4 6 7 9 5 2 2 2 3 3 2 5 11 12
17 21 29 27 27 29 29 32 30 27 24 20 17 16 17 17 15 13 12 11 11 9 6 11 8 6 4 3 4 3 3 4 5 4 3 2 1 1 1 1 3 5 4
17 17 17 24 23 26 30 33 33 29 26 23 19 18 16 15 15 14 14 15 15 14 11 8 11 9 6 6 4 4 5 3 3 2 2 4 3 3 2 1 1 2 4
17 19 23 26 27 29 32 33 34 32 30 27 25 20 19 17 16 15 14 17 18 16 13 13 13 11 9 7 7 5 4 3 4 3 2 4 2 1 4 2 1 2 3
15 19 23 26 27 29 31 37 36 35 32 30 27 23 20 19 19 14 16 16 16 16 13 12 13 11 11 9 9 8 6 7 6 4 5 7 5 4 3 2 2 2 1
13 13 19 26 28 31 36 38 39 39 35 31 29 27 25 21 18 17 18 13 14 13 15 12 16 13 11 10 10 9 7 6 6 7 4 5 4 4 5 5 1 5 4
15 13 18 25 30 29 30 36 35 36 36 33 30 28 27 23 18 18 18 14 13 14 14 12 13 14 13 11 11 11 10 9 7 8 7 7 6 6 4 2 3 1 2
18 16 22 23 27 33 30 32 35 38 38 35 31 30 26 24 21 19 16 15 13 12 14 15 14 14 11 10 13 11 11 11 11 9 8 8 6 6 6 4 3 2 1
4 9 16 21 24 28 30 34 36 39 38 34 32 29 26 26 25 22 19 18 14 12 11 12 15 14 11 11 10 11 11 11 11 11 13 13 10 9 7 5 4 2 1
5 5 5 11 21 25 30 31 32 36 38 35 32 31 30 28 27 25 23 21 19 15 15 11 10 12 12 12 11 11 9 5 11 10 9 9 11 12 10 8 7 5 5
7 4 4 6 14 20 24 26 28 36 38 36 34 35 32 31 26 26 25 24 22 19 16 13 12 12 11 11 11 12 14 13 15 12 10 9 7 10 9 9 8 7 5
9 7 5 4 3 9 14 26 32 34 36 35 36 32 30 30 25 25 26 23 22 15 16 14 12 11 9 8 10 10 11 15 15 13 11 10 8 7 7 8 7 6 5
9 7 8 7 7 5 3 2 8 20 23 25 27 28 28 27 21 20 19 25 17 15 20 16 15 13 11 9 8 8 7 9 13 13 12 10 7 6 7 9 6 4 3
8 7 13 6 2 5 2 3 4 7 13 16 19 20 22 21 18 18 14 17 18 23 24 20 11 11 8 6 6 6 8 8 9 10 11 9 8 7 9 9 7 4 3
11 6 14 10 5 3 7 9 9 11 16 16 19 20 18 16 20 21 16 9 18 22 19 21 20 14 10 9 4 2 6 8 7 5 4 5 5 7 10 10 8 5 4
14 17 14 13 11 8 6 13 10 9 10 15 19 18 18 17 17 13 10 14 17 15 18 18 14 12 11 9 6 7 12 13 12 7 4 6 5 6 7 8 9 13 12
11 10 10 11 10 6 9 14 11 11 7 16 9 10 12 15 10 10 11 10 9 13 15 13 10 10 8 6 10 12 12 13 13 13 14 11 9 7 5 6 9 13 13
6 9 12 13 12 11 16 18 13 6 13 16 14 12 12 16 15 9 10 12 15 16 16 15 12 9 8 8 9 9 10 13 14 13 10 9 7 6 5 6 10 11 11
6 8 13 16 17 14 14 17 14 13 14 17 16 16 17 15 14 14 14 14 14 14 14 13 13 11 9 8 8 9 13 12 11 10 8 7 7 7 7 6 6 6 8
9 8 11 16 17 18 17 16 14 15 17 19 18 17 14 13 13 13 13 13 12 11 11 10 10 10 9 9 10 10 10 10 9 8 9 9 9 8 8 8 8 7 7
7 9 12 14 14 15 17 15 13 16 22 21 19 17 17 15 14 13 12 9 7 6 7 7 8 9 5 5 6 8 8 8 8 10 12 12 11 10 10 9 8 7 8
9 9 9 11 11 13 15 13 12 12 14 16 14 13 12 13 11 12 12 12 11 8 7 5 7 7 3 2 1 2 3 5 8 13 12 10 9 10 11 11 11 11 11

GFSMW_925_spd_123.txt.gz
Wind_Speed
17 15 16 16 15 15 15 15 14 15 16 16 11 7 7 6 8 7 7 6 3 2 1 3 3 3 3 6 5 5 5 4 5 5 5 3 1 2 4 5 5 5 7
13 17 18 18 18 18 17 15 16 15 15 17 17 10 9 8 8 10 8 7 6 3 2 3 3 2 2 3 4 3 2 3 2 1 2 2 3 2 3 3 5 4 5
17 16 20 21 19 20 20 19 19 18 17 17 18 12 9 10 7 8 9 8 6 5 5 3 4 2 2 1 3 4 2 2 3 1 1 2 1 2 3 5 5 4 4
17 17 21 22 23 23 20 20 21 21 19 17 16 15 11 10 10 9 9 8 8 7 6 5 4 3 3 2 0 3 2 2 2 2 3 2 1 1 2 4 6 8 9
18 18 23 26 25 21 23 22 23 23 19 19 16 16 13 12 10 10 9 9 8 8 7 6 6 5 3 3 2 1 2 2 2 1 1 1 2 1 2 3 4 5 4
18 20 25 22 22 20 19 20 22 25 23 21 18 16 15 14 9 11 10 9 9 8 9 9 8 8 5 4 3 4 3 1 1 2 1 1 1 1 1 2 3 5 4
19 18 18 22 23 23 22 21 21 23 25 22 20 18 17 16 15 13 12 11 10 11 11 11 11 9 7 6 6 6 7 5 3 3 2 1 0 1 0 2 2 3 2
19 19 24 26 27 26 24 23 22 21 22 22 23 21 19 15 14 14 12 11 11 11 12 13 13 12 13 10 8 6 6 6 5 5 4 3 3 2 1 3 4 2 1
20 21 24 26 25 25 26 26 24 24 23 24 23 22 22 19 16 16 16 13 13 12 15 14 13 13 13 11 10 9 9 8 7 7 7 7 7 5 5 4 4 5 4
11 10 17 25 25 26 27 25 24 27 26 24 22 21 21 21 18 17 16 15 14 15 16 15 14 12 13 12 12 11 10 11 10 9 8 6 6 6 6 6 6 5 5
17 15 19 27 28 25 25 25 25 25 26 26 24 22 20 23 21 18 17 16 15 14 14 14 15 15 12 12 13 12 12 12 11 9 10 10 9 7 7 6 6 6 5
14 14 20 23 25 26 26 27 26 25 26 25 24 25 23 21 20 22 20 17 16 15 12 13 15 15 11 12 15 13 12 12 12 11 11 11 9 10 10 8 7 7 7
9 9 11 15 19 23 23 24 25 27 25 24 24 24 23 22 21 20 21 19 17 17 14 13 13 15 14 13 14 14 13 14 14 13 12 12 11 11 10 10 9 9 8
9 9 9 15 18 19 18 20 22 26 21 20 22 23 24 25 24 23 23 21 20 18 16 13 11 11 11 13 14 14 16 15 14 14 15 14 16 14 13 12 10 11 9
4 8 11 11 12 12 13 17 17 20 25 20 22 26 21 22 23 22 22 23 22 20 16 14 12 12 10 10 13 15 16 17 13 10 11 11 12 12 12 12 11 10 10
9 6 5 1 2 9 10 14 19 23 17 25 21 17 20 23 21 23 22 23 23 22 18 16 15 13 9 11 12 13 12 11 11 12 12 14 14 11 11 10 10 9 7
8 9 9 10 2 6 16 14 14 14 20 19 17 17 23 20 27 27 27 27 23 23 21 17 14 14 14 13 11 11 10 8 8 11 14 16 10 10 9 9 9 10 11
7 5 7 8 7 7 7 7 7 10 11 8 9 7 6 11 15 15 21 21 20 25 23 16 16 13 13 11 11 10 9 8 8 8 7 10 10 8 6 5 4 4 5
9 11 11 11 9 7 5 6 6 8 9 7 5 5 7 12 15 19 17 25 22 23 21 17 15 12 12 16 15 10 6 2 5 6 5 6 5 8 9 7 6 4 2
8 10 11 9 9 9 6 3 7 5 5 7 7 5 8 15 18 13 13 21 20 22 15 8 7 10 13 20 21 19 16 10 5 4 1 2 1 2 2 6 7 7 5
9 9 11 13 14 14 7 7 9 7 2 4 1 7 4 9 13 12 16 17 16 17 13 10 4 6 10 12 16 13 12 9 8 10 8 6 5 4 5 6 7 8 6
7 9 12 15 16 15 13 13 11 5 4 4 1 4 3 4 8 15 11 9 9 11 12 11 8 6 4 4 6 6 5 7 9 11 8 7 6 4 5 5 3 4 7
8 9 10 14 14 14 14 16 11 9 10 12 11 9 7 7 7 9 8 7 9 10 12 14 14 9 7 4 4 5 3 5 5 6 6 6 6 6 6 8 9 7 6
8 9 11 14 15 15 18 18 16 14 14 15 14 11 12 12 10 10 9 8 5 5 9 11 9 7 7 6 6 8 6 4 6 7 8 7 6 5 5 5 4 3 5
9 10 11 12 13 16 18 17 18 21 24 21 21 21 18 16 17 17 16 13 9 8 9 10 9 9 10 8 9 8 7 5 4 5 6 6 5 5 4 5 4 3 3
7 10 11 11 11 15 16 16 15 16 18 19 19 19 19 18 18 20 21 20 18 13 11 11 9 11 10 8 6 6 7 4 1 3 2 1 2 3 2 3 4 3 3